Zurück zum Katalog

STARLINK-35276

AktivKommunikationVLEO
NORAD 66009·PAYLOAD·🇺🇸 United States

Gestartet Oct 16, 2025 von Cape Canaveral Space Force Station

Loading…

Nächste Überflüge (nächste 24 Stunden)

TLE

AktuellSource: CelesTrak SupGP

Epoche: Sep 15, 2026, 03:36 UTC

1 66009C 25232E   26258.15048611  .00019830  00000+0  58571-3 0  2581
2 66009  53.1566 302.4121 0001166  94.1909 267.5909 15.34390213    18

Verfolge STARLINK-35276 in Echtzeit mit AllMySat

Download on the App Store